EA5DHO-13 Weather Reports


Display with metric or nautical units.
time (UTC)temp
F
wind
direction
speed
MPH
gust
MPH
rain 1hr
in
rain 24hr
in
rain mn
in
humidity
%
barometer
mb
20260902204454 80 117 2.0 4.0 0.00 0.00 0.00 87 1024.0
20260902203451 80 68 1.0 4.0 0.00 0.00 0.00 88 1024.0
20260902202507 80 68 0.0 2.0 0.00 0.00 0.00 88 1023.9
20260902201443 80 68 2.0 4.0 0.00 0.00 0.00 87 1023.8
20260902200439 80 45 2.0 4.0 0.00 0.00 0.00 87 1023.7
20260902195436 80 45 3.0 6.0 0.00 0.00 0.00 87 1023.5
20260902194434 80 68 1.0 4.0 0.00 0.00 0.00 86 1023.5
20260902193451 80 79 3.0 7.0 0.00 0.00 0.00 87 1023.2
20260902192426 80 45 3.0 8.0 0.00 0.00 0.00 86 1023.2
20260902191423 80 97 3.0 4.0 0.00 0.00 0.00 86 1023.0
20260902190419 80 23 2.0 4.0 0.00 0.00 0.00 86 1022.8
20260902185416 80 36 2.0 4.0 0.00 0.00 0.00 85 1022.7
20260902184534 81 68 2.0 4.0 0.00 0.00 0.00 84 1022.6
20260902183531 80 54 3.0 4.0 0.00 0.00 0.00 83 1022.6
20260902182507 81 53 3.0 7.0 0.00 0.00 0.00 83 1022.6
20260902181546 81 68 4.0 7.0 0.00 0.00 0.00 83 1022.5
20260902180500 81 45 4.0 8.0 0.00 0.00 0.00 83 1022.6
20260902175457 81 79 4.0 9.0 0.00 0.00 0.00 82 1022.6
20260902174454 81 63 4.0 13.0 0.00 0.00 0.00 82 1022.7
20260902173450 81 73 6.0 11.0 0.00 0.00 0.00 81 1022.7
20260902172449 82 45 4.0 7.0 0.00 0.00 0.00 80 1022.6
20260902171445 82 52 3.0 7.0 0.00 0.00 0.00 79 1022.6
20260902170501 83 68 4.0 11.0 0.00 0.00 0.00 78 1022.5
20260902165438 82 91 8.0 11.0 0.00 0.00 0.00 79 1022.4
20260902164435 83 97 5.0 7.0 0.00 0.00 0.00 79 1022.4
20260902163432 83 85 7.0 11.0 0.00 0.00 0.00 79 1022.5
20260902162429 83 77 7.0 13.0 0.00 0.00 0.00 77 1022.5
20260902161426 83 82 5.0 8.0 0.00 0.00 0.00 78 1022.4
20260902160421 83 75 3.0 7.0 0.00 0.00 0.00 78 1022.5
20260902155418 83 68 9.0 13.0 0.00 0.00 0.00 78 1022.4
20260902154435 83 58 5.0 9.0 0.00 0.00 0.00 79 1022.5
20260902153532 83 68 6.0 11.0 0.00 0.00 0.00 78 1022.7
20260902152508 83 78 5.0 9.0 0.00 0.00 0.00 78 1022.7
20260902151506 83 72 6.0 11.0 0.00 0.00 0.00 77 1022.6
20260902150502 84 144 9.0 16.0 0.00 0.00 0.00 76 1022.6
20260902145459 83 76 6.0 11.0 0.00 0.00 0.00 78 1022.6
20260902144457 83 85 9.0 15.0 0.00 0.00 0.00 77 1022.8
20260902143454 83 82 9.0 15.0 0.00 0.00 0.00 76 1022.8
20260902142449 85 58 5.0 11.0 0.00 0.00 0.00 74 1022.9
20260902141447 84 96 8.0 11.0 0.00 0.00 0.00 72 1023.0
20260902140443 84 111 3.0 7.0 0.00 0.00 0.00 74 1023.1
20260902135439 83 124 6.0 11.0 0.00 0.00 0.00 75 1023.1
20260902134437 84 90 5.0 11.0 0.00 0.00 0.00 76 1023.1
20260902133433 83 90 5.0 8.0 0.00 0.00 0.00 77 1023.2
20260902132430 83 84 6.0 16.0 0.00 0.00 0.00 76 1023.1
20260902131426 82 59 8.0 13.0 0.00 0.00 0.00 79 1023.2
20260902130423 84 90 6.0 14.0 0.00 0.00 0.00 76 1023.2
20260902125420 85 191 4.0 9.0 0.00 0.00 0.00 75 1023.3
20260902124417 82 135 9.0 15.0 0.00 0.00 0.00 76 1023.4
20260902123514 83 90 7.0 11.0 0.00 0.00 0.00 77 1023.4
20260902122511 83 75 7.0 11.0 0.00 0.00 0.00 74 1023.5
20260902121507 84 150 6.0 9.0 0.00 0.00 0.00 72 1023.5
20260902120504 84 104 3.0 7.0 0.00 0.00 0.00 73 1023.5
20260902115502 85 68 2.0 4.0 0.00 0.00 0.00 72 1023.6
20260902114458 83 68 5.0 9.0 0.00 0.00 0.00 75 1023.6
20260902113537 84 152 6.0 11.0 0.00 0.00 0.00 75 1023.7
20260902112451 83 74 6.0 9.0 0.00 0.00 0.00 74 1023.7
20260902111448 82 90 4.0 9.0 0.00 0.00 0.00 77 1023.8
20260902110505 82 68 7.0 13.0 0.00 0.00 0.00 76 1023.9
20260902105442 83 86 4.0 8.0 0.00 0.00 0.00 74 1023.8
20260902104440 83 90 7.0 9.0 0.00 0.00 0.00 74 1023.9
20260902103436 84 68 1.0 2.0 0.00 0.00 0.00 74 1024.0
20260902102433 82 68 6.0 9.0 0.00 0.00 0.00 77 1023.9
20260902101428 81 45 7.0 11.0 0.00 0.00 0.00 78 1023.9
20260902100425 81 84 6.0 9.0 0.00 0.00 0.00 79 1023.8
20260902095422 81 75 7.0 11.0 0.00 0.00 0.00 78 1024.0
20260902094439 82 116 4.0 9.0 0.00 0.00 0.00 76 1023.9
20260902093416 81 79 8.0 15.0 0.00 0.00 0.00 76 1023.7
20260902092514 82 90 5.0 14.0 0.00 0.00 0.00 72 1023.8
20260902091511 83 76 3.0 6.0 0.00 0.00 0.00 72 1023.8
20260902090506 83 75 4.0 6.0 0.00 0.00 0.00 68 1023.5
20260902085503 84 158 3.0 6.0 0.00 0.00 0.00 67 1023.5
20260902084520 82 90 0.0 2.0 0.00 0.00 0.00 72 1023.4
20260902083456 84 181 2.0 4.0 0.00 0.00 0.00 68 1023.0
20260902082453 82 145 3.0 4.0 0.00 0.00 0.00 68 1022.9
20260902081451 82 146 3.0 4.0 0.00 0.00 0.00 68 1023.0
20260902080448 82 270 2.0 4.0 0.00 0.00 0.00 67 1023.0
20260902075443 81 0.0 0.0 0.00 0.00 0.00 69 1022.8
20260902074440 81 0.0 0.0 0.00 0.00 0.00 70 1022.8
20260902073437 80 0.0 0.0 0.00 0.00 0.00 71 1022.6
20260902072435 80 0.0 0.0 0.00 0.00 0.00 71 1022.6
20260902071430 78 0.0 0.0 0.00 0.00 0.00 74 1022.4
20260902070427 77 270 1.0 2.0 0.00 0.00 0.00 76 1022.4
20260902065424 76 0.0 0.0 0.00 0.00 0.00 79 1022.2
20260902064422 75 0.0 0.0 0.00 0.00 0.00 81 1022.2
20260902063437 74 270 0.0 2.0 0.00 0.00 0.00 80 1022.1
20260902062537 74 270 1.0 2.0 0.00 0.00 0.00 81 1022.0
20260902061511 73 270 1.0 2.0 0.00 0.00 0.00 83 1021.9
20260902060509 73 284 4.0 7.0 0.00 0.00 0.00 83 1021.8
20260902055504 73 270 3.0 6.0 0.00 0.00 0.00 84 1021.8
20260902054501 72 248 3.0 4.0 0.00 0.00 0.00 84 1021.8
20260902053458 73 248 2.0 4.0 0.00 0.00 0.00 84 1021.7
20260902052454 73 270 3.0 7.0 0.00 0.00 0.00 84 1021.6
20260902051451 73 225 1.0 4.0 0.00 0.00 0.00 85 1021.5
20260902050449 73 270 1.0 2.0 0.00 0.00 0.00 85 1021.5
20260902045445 73 248 1.0 2.0 0.00 0.00 0.00 85 1021.6
20260902044443 73 248 0.0 2.0 0.00 0.00 0.00 84 1021.4
20260902043438 73 270 1.0 2.0 0.00 0.00 0.00 84 1021.4
20260902042436 74 270 0.0 2.0 0.00 0.00 0.00 84 1021.4
20260902041513 74 287 2.0 4.0 0.00 0.00 0.00 84 1021.3
20260902040449 73 270 2.0 2.0 0.00 0.00 0.00 85 1021.4
20260902035425 73 270 2.0 2.0 0.00 0.00 0.00 85 1021.5
20260902034422 73 270 1.0 2.0 0.00 0.00 0.00 85 1021.6
20260902033440 73 255 2.0 4.0 0.00 0.00 0.00 85 1021.7
20260902032417 73 242 2.0 4.0 0.00 0.00 0.00 85 1021.8
20260902031513 73 248 0.0 2.0 0.00 0.00 0.00 86 1021.8
20260902030509 73 270 3.0 4.0 0.00 0.00 0.00 86 1021.7
20260902025508 74 255 2.0 2.0 0.00 0.00 0.00 87 1021.6
20260902024503 74 0.0 0.0 0.00 0.00 0.00 87 1021.8
20260902023500 74 270 0.0 2.0 0.00 0.00 0.00 87 1021.8
20260902022457 74 251 1.0 2.0 0.00 0.00 0.00 87 1021.7
20260902021453 74 248 1.0 2.0 0.00 0.00 0.00 87 1021.7
20260902020451 74 242 2.0 2.0 0.00 0.00 0.00 87 1021.8
20260902015447 75 216 2.0 4.0 0.00 0.00 0.00 87 1021.8
20260902014444 75 260 1.0 2.0 0.00 0.00 0.00 87 1021.9
20260902013441 75 287 2.0 2.0 0.00 0.00 0.00 88 1022.0
20260902012437 75 270 1.0 4.0 0.00 0.00 0.00 88 1021.9
20260902011434 75 270 1.0 4.0 0.00 0.00 0.00 88 1022.1
20260902010431 75 248 1.0 4.0 0.00 0.00 0.00 88 1022.1
20260902005428 76 0.0 2.0 0.00 0.00 0.00 88 1022.1
20260902004424 76 0.0 0.0 0.00 0.00 0.00 87 1022.2
20260902003421 76 0.0 2.0 0.00 0.00 0.00 87 1022.3
20260902002418 76 0.0 0.0 0.00 0.00 0.00 87 1022.2
20260902001415 77 0.0 0.0 0.00 0.00 0.00 87 1022.2
20260902000513 77 0.0 0.0 0.00 0.00 0.00 87 1022.3
20260901235510 77 0.0 0.0 0.00 0.00 0.00 87 1022.3
20260901234505 77 0.0 0.0 0.00 0.00 0.00 87 1022.3
20260901233502 77 0.0 0.0 0.00 0.00 0.00 87 1022.2
20260901232459 77 270 0.0 2.0 0.00 0.00 0.00 87 1022.1
20260901231456 77 270 0.0 2.0 0.00 0.00 0.00 87 1022.1
20260901230453 77 270 1.0 2.0 0.00 0.00 0.00 86 1022.2
20260901225450 77 0.0 2.0 0.00 0.00 0.00 86 1022.2
20260901224446 78 225 0.0 2.0 0.00 0.00 0.00 85 1022.2
20260901223503 78 225 0.0 2.0 0.00 0.00 0.00 85 1022.1
20260901222440 78 0.0 0.0 0.00 0.00 0.00 84 1022.2
20260901221437 78 225 1.0 2.0 0.00 0.00 0.00 84 1022.2
20260901220433 78 225 2.0 2.0 0.00 0.00 0.00 84 1022.2
20260901215430 79 203 2.0 2.0 0.00 0.00 0.00 83 1022.2
20260901214449 79 203 1.0 2.0 0.00 0.00 0.00 83 1022.1
20260901213423 79 203 2.0 2.0 0.00 0.00 0.00 82 1022.1
20260901212501 79 158 0.0 2.0 0.00 0.00 0.00 82 1022.2
20260901211417 79 158 0.0 2.0 0.00 0.00 0.00 82 1022.1
20260901210534 79 158 3.0 4.0 0.00 0.00 0.00 82 1022.1
20260901205512 79 0.0 0.0 0.00 0.00 0.00 82 1022.1